Theta_e
346 353 351 352 352 352 352 352 354 355 355 355 355 355 356 356 355 355 356 356 357 359 359 356 356 355 355 356 356 354 352 353 355 355 355 354 353 352 351 352 351 346 349
351 355 350 351 352 353 353 352 354 356 356 355 355 355 355 356 354 355 356 356 356 359 359 355 355 355 354 353 353 351 351 351 353 353 354 354 353 351 351 351 351 347 350
351 355 356 351 352 352 353 353 355 357 357 356 355 355 355 355 354 354 356 355 356 358 358 355 354 353 351 351 350 350 349 350 351 353 353 350 351 352 350 349 350 350 350
354 354 356 351 351 351 351 352 353 356 357 357 355 355 355 355 354 354 355 355 356 357 358 356 354 353 352 348 348 348 348 348 350 351 350 348 349 351 350 349 349 350 350
352 353 357 350 350 351 350 351 352 354 355 356 355 355 355 355 355 354 354 354 357 359 359 357 357 355 349 346 346 347 347 347 348 349 348 350 350 350 350 348 348 349 350
352 354 350 348 350 351 350 350 351 351 351 352 354 355 355 355 355 354 352 355 357 358 358 358 357 354 348 345 345 346 346 346 345 348 348 349 349 350 350 350 347 347 348
352 356 356 346 349 350 351 351 350 350 349 350 352 354 355 355 355 354 352 353 355 357 357 356 354 352 348 346 345 345 344 344 347 346 347 349 350 351 350 349 349 349 348
354 356 357 350 348 349 349 349 348 347 348 348 349 351 354 353 353 352 352 352 353 354 353 353 351 350 348 346 345 343 343 342 345 346 347 348 348 350 350 351 349 348 348
353 357 359 359 354 346 344 344 344 346 346 347 347 348 350 349 349 350 351 351 352 352 351 351 349 348 347 346 344 341 340 342 347 346 346 347 347 348 350 351 349 348 347
340 352 357 358 359 359 359 344 344 344 345 345 346 346 345 346 348 348 348 349 350 350 349 349 348 347 346 344 342 340 339 340 346 345 346 346 346 347 349 351 349 348 346
324 329 345 356 357 359 358 355 346 345 345 345 346 345 344 352 351 351 348 346 348 346 346 346 346 344 343 343 342 340 339 346 345 345 345 341 342 346 347 348 349 347 347
321 324 326 340 353 357 354 357 357 356 355 354 354 355 355 354 354 349 347 343 344 343 344 344 344 342 343 350 349 343 348 346 346 345 344 340 342 344 345 347 348 347 346
319 321 324 328 344 355 354 354 354 354 354 355 356 355 353 351 352 351 351 350 351 345 350 348 350 352 351 350 347 348 346 347 346 345 342 338 341 344 345 347 348 347 346
318 321 329 333 337 349 353 353 354 353 353 353 352 352 352 352 351 351 348 348 349 349 348 349 350 351 350 350 350 348 349 346 345 344 343 336 338 343 346 347 348 348 347
320 323 328 331 337 342 350 353 354 353 352 352 351 352 349 348 350 349 347 348 347 349 347 348 350 348 349 349 349 348 348 348 347 344 344 335 335 340 344 346 347 348 348
317 319 321 322 325 324 327 339 348 351 349 348 347 349 349 347 347 347 348 346 347 348 350 348 344 346 347 345 347 348 347 347 348 348 346 345 332 335 340 344 346 347 349
315 315 314 314 315 319 318 323 328 330 335 334 334 331 334 335 334 343 345 345 346 348 347 346 345 347 344 343 343 345 347 348 347 346 347 346 342 329 332 338 341 344 345
309 309 309 308 309 312 315 316 319 321 323 324 324 326 326 326 326 329 332 335 335 337 336 345 343 344 342 340 340 340 343 346 347 347 347 348 345 344 332 331 334 338 341
306 305 304 306 305 306 307 312 315 317 317 317 318 318 319 321 322 323 328 331 332 331 332 331 337 342 341 339 339 340 341 341 346 344 345 346 347 346 344 332 329 331 335
306 305 302 302 304 305 305 309 313 314 314 315 316 315 316 318 319 321 323 324 326 327 331 332 331 333 335 336 336 335 338 340 343 340 340 342 344 346 345 344 341 339 327
305 304 302 300 299 299 303 303 305 306 313 313 313 313 313 314 316 318 319 320 322 322 324 327 328 331 335 338 331 331 334 339 333 332 331 329 334 341 344 345 344 344 340
302 302 301 299 299 298 299 299 304 306 310 311 310 311 311 311 312 312 311 311 311 313 317 320 323 323 326 334 330 327 321 324 331 328 328 328 331 336 338 342 343 342 343
302 303 302 301 299 299 299 300 301 305 306 305 306 307 307 308 307 305 306 307 308 309 310 310 312 315 319 325 332 330 322 319 325 328 326 330 333 336 338 339 340 342 343
300 300 302 300 301 300 301 300 301 302 302 302 304 304 304 305 303 302 302 304 305 305 307 307 310 311 312 313 322 329 334 330 322 320 330 332 335 335 339 338 339 340 340
296 296 297 300 299 299 299 297 298 298 300 302 302 301 301 301 302 301 300 301 301 302 303 303 304 305 308 311 312 317 322 329 330 326 320 326 332 334 336 339 340 340 340
298 298 297 297 297 298 295 296 297 296 295 296 296 296 297 297 298 298 298 299 300 300 300 301 302 303 305 307 309 313 313 315 321 323 323 324 324 330 334 336 338 339 340
Wind_Speed
7 13 11 13 12 11 10 10 9 8 9 11 13 14 15 16 17 16 15 15 15 14 16 14 11 10 10 10 9 9 7 8 8 9 9 10 11 12 13 11 11 14 10
7 14 11 13 13 11 11 11 11 9 9 11 12 13 14 15 16 16 15 15 15 15 16 14 12 11 11 11 10 8 8 8 9 8 8 10 10 11 11 8 8 16 10
7 11 13 10 12 12 12 11 11 11 10 10 11 13 13 14 15 15 15 15 15 16 16 16 14 12 11 10 9 8 7 8 8 8 10 10 12 11 10 5 13 13 11
8 11 12 9 10 10 11 11 11 11 11 11 10 11 13 14 14 14 14 13 14 16 16 16 14 12 9 9 9 8 7 8 8 8 11 4 12 11 10 8 10 12 11
5 7 10 10 9 10 11 11 10 11 11 11 11 10 11 12 13 13 13 13 13 15 15 15 14 10 9 9 9 7 7 8 8 11 4 4 7 12 12 11 11 9 11
3 3 12 9 9 10 11 11 10 10 10 11 10 10 10 11 11 11 11 13 13 13 15 13 12 9 8 7 8 8 8 8 9 9 5 6 5 15 12 12 8 9 7
3 0 7 7 7 9 10 11 11 11 10 10 10 10 10 10 10 10 10 11 12 12 13 12 9 9 7 7 8 9 8 8 11 6 6 8 5 11 12 13 10 10 9
4 2 1 7 5 6 6 7 6 5 7 9 11 11 11 11 11 11 11 11 11 11 11 10 10 10 8 8 9 8 8 9 9 7 6 7 12 10 13 13 11 12 11
5 4 3 3 7 7 3 3 3 3 5 6 7 8 10 11 11 12 12 11 10 9 9 9 9 9 10 10 9 8 8 9 10 6 7 6 13 11 11 13 13 13 13
7 5 6 5 5 6 7 8 4 5 6 6 7 6 7 6 7 9 10 11 10 10 9 9 9 9 10 9 8 8 8 7 12 7 7 4 11 12 13 11 13 14 14
7 8 6 6 6 6 7 6 10 9 7 7 9 9 6 9 12 14 12 9 12 10 10 9 9 9 9 8 7 8 8 9 10 7 6 12 9 11 13 10 11 13 14
12 10 7 8 8 8 7 7 8 8 9 11 11 11 10 10 10 8 9 9 7 9 9 9 11 10 9 11 10 10 9 11 8 8 6 11 9 12 12 10 10 12 14
14 12 12 10 9 9 8 7 5 5 6 6 9 8 7 6 6 6 7 8 10 11 10 12 12 11 14 12 10 9 12 11 7 7 7 12 11 12 12 11 10 11 12
16 16 17 15 10 9 7 7 7 5 5 5 6 8 8 7 8 8 5 7 9 9 12 10 8 13 15 16 14 12 12 10 8 7 6 12 11 12 13 13 12 12 13
14 15 16 16 15 14 9 7 6 5 6 5 5 7 5 5 7 7 6 5 5 8 9 9 10 11 13 14 14 14 14 13 13 7 6 14 12 13 15 15 16 16 16
14 14 16 15 16 14 11 11 3 4 3 2 0 3 6 5 5 6 8 7 7 6 8 9 9 9 9 8 13 14 15 14 13 13 9 9 14 15 15 16 16 15 16
13 15 17 16 16 14 11 10 7 7 7 6 5 8 6 5 5 5 6 8 7 7 10 8 10 10 8 7 12 12 13 16 14 14 12 10 11 14 14 16 15 15 14
15 16 15 14 15 15 14 9 6 7 5 6 6 6 9 8 7 6 5 4 4 4 5 7 8 10 9 8 8 9 10 13 16 16 13 12 11 9 14 16 16 17 15
14 15 15 16 16 14 12 8 7 8 7 6 6 7 10 9 9 8 5 5 6 6 6 5 6 9 10 9 10 10 11 12 14 10 15 14 14 12 10 16 18 16 17
13 13 14 13 17 14 9 7 6 6 6 7 8 8 11 9 11 9 7 7 7 8 8 7 8 6 7 7 9 12 12 10 9 7 7 8 12 15 15 13 11 12 19
12 13 14 14 15 11 11 8 5 7 6 6 7 10 10 10 11 10 8 8 8 8 10 10 9 11 10 10 7 9 9 11 9 6 9 8 14 16 16 17 10 10 12
11 12 12 14 15 12 9 8 6 5 4 5 7 8 11 11 11 11 10 9 9 8 11 12 11 9 10 9 5 4 4 3 8 10 9 13 22 15 14 16 14 16 14
14 13 12 12 11 11 12 7 6 3 3 5 6 7 10 11 12 11 12 10 10 8 7 10 9 11 11 10 11 9 4 6 8 7 13 14 19 15 16 14 13 15 15
13 12 12 12 12 11 12 9 10 8 6 6 7 7 8 11 10 11 12 12 10 9 9 9 9 9 8 10 11 7 17 15 10 10 10 14 17 18 18 15 15 16 17
11 11 13 13 13 12 12 10 8 7 7 6 7 8 10 10 11 11 13 12 11 8 9 10 11 10 8 8 9 11 12 13 13 12 12 9 11 13 15 16 15 14 18
9 9 9 10 11 13 12 13 12 11 8 7 8 7 8 7 9 10 13 11 11 10 10 10 11 10 9 9 8 9 11 9 11 12 15 16 15 11 13 13 14 15 15
Wind_Direction
144 140 158 146 139 134 119 116 125 142 162 164 164 161 157 152 151 153 154 155 156 156 152 154 154 148 134 137 130 123 117 111 107 110 114 119 128 131 130 144 178 117 133
152 154 160 150 150 144 132 127 133 143 161 166 167 164 162 158 158 159 160 161 163 163 156 157 157 151 141 133 127 127 127 119 117 122 136 134 137 139 145 172 258 115 130
146 140 164 151 153 149 142 137 138 143 152 162 171 167 167 167 164 166 164 166 167 166 162 162 160 157 149 136 129 129 121 119 133 149 191 171 147 147 149 115 107 134 139
136 150 156 153 153 154 146 146 144 144 148 157 171 174 171 174 174 172 169 172 175 170 167 170 169 164 154 140 132 131 131 135 150 172 207 173 128 146 151 144 133 146 152
115 148 126 156 157 158 156 157 154 148 151 156 165 174 180 180 182 179 176 178 182 180 178 179 181 173 166 151 141 144 149 149 164 205 137 175 141 146 159 161 159 151 175
89 153 124 166 170 169 167 167 166 165 165 166 167 171 181 185 188 189 187 184 187 189 185 192 193 181 178 161 155 160 168 167 188 212 166 119 223 144 170 174 175 164 170
30 136 162 166 183 185 179 178 179 178 174 174 175 176 180 187 193 193 192 193 193 194 191 197 199 188 188 176 175 175 185 187 225 172 177 158 168 157 180 186 170 165 165
342 333 286 164 203 219 210 198 194 191 193 188 185 184 184 186 188 193 194 196 195 197 196 199 203 188 196 195 192 187 194 210 218 195 199 188 121 169 190 191 180 179 181
356 329 277 244 193 201 245 252 215 197 205 219 214 206 201 194 191 194 196 197 201 200 201 202 195 189 199 205 199 195 198 212 249 225 210 203 143 191 200 196 188 190 190
351 339 316 290 252 237 218 183 197 202 205 209 229 234 233 229 219 208 199 202 202 202 203 202 203 205 207 209 200 193 198 218 241 224 223 202 147 196 209 199 197 194 198
4 350 308 278 258 236 231 195 191 205 212 209 213 219 225 236 222 221 217 206 201 205 203 202 202 209 212 218 213 192 192 229 223 237 228 119 162 205 211 221 206 198 202
346 336 324 294 257 234 236 225 221 216 213 212 216 217 215 225 234 254 229 199 201 209 208 205 204 202 204 223 206 199 223 237 230 242 237 131 192 213 219 228 212 200 202
336 331 337 321 273 244 232 222 218 216 219 221 243 234 231 220 222 228 245 211 225 207 223 209 211 220 222 231 227 209 215 225 232 229 227 149 197 218 224 225 212 204 209
338 342 346 338 307 269 257 220 231 222 205 231 215 219 232 227 224 216 210 243 246 229 221 230 219 223 223 226 237 231 231 232 224 228 213 157 194 216 227 228 218 213 214
358 359 354 356 351 341 273 256 246 218 219 220 223 222 228 242 239 230 217 211 235 237 240 242 236 230 231 231 232 235 233 232 244 239 236 160 188 208 222 228 238 229 230
7 7 3 4 2 2 1 351 304 275 219 211 179 257 228 237 234 228 230 218 222 230 243 233 232 250 239 230 239 239 239 239 233 238 236 196 187 203 211 225 230 240 237
13 10 11 8 7 6 7 1 11 18 23 43 41 19 7 12 356 301 250 229 231 225 228 232 248 249 241 225 228 226 236 245 244 242 239 241 193 196 205 213 221 228 240
16 15 15 12 11 9 8 6 14 20 39 43 27 29 11 2 355 330 309 293 320 300 309 252 237 233 222 224 226 228 220 230 239 238 238 241 247 231 195 206 214 217 221
25 19 16 14 13 9 6 355 18 29 27 33 35 31 12 4 353 329 292 281 295 271 265 270 291 252 241 224 225 219 221 219 223 219 233 237 244 248 232 192 198 215 217
25 29 22 17 14 9 9 352 7 32 38 31 32 23 10 4 352 331 313 316 305 290 269 250 254 268 270 253 239 229 218 219 229 229 241 247 252 249 246 236 197 209 216
30 30 27 21 17 14 13 9 0 6 10 26 22 16 11 4 1 339 331 322 317 303 305 301 287 276 263 260 260 251 228 215 189 164 179 251 272 253 240 238 216 233 213
30 28 27 24 20 20 11 358 352 348 1 8 12 10 10 2 1 354 350 341 332 324 315 309 301 288 273 268 244 253 272 239 246 239 234 220 243 242 249 250 220 227 229
27 25 28 30 25 21 4 4 348 351 3 12 11 9 356 1 5 358 352 345 334 331 319 311 307 307 289 268 274 246 216 248 244 215 227 221 231 234 239 240 240 226 226
15 11 20 18 18 23 16 13 10 3 359 6 360 9 358 1 2 2 351 342 332 331 323 321 318 309 294 285 274 263 270 280 257 243 213 216 227 229 231 234 232 232 227
11 9 8 3 13 17 12 17 16 358 358 355 359 360 15 358 358 1 345 338 327 325 323 319 314 311 307 291 277 287 289 270 268 263 263 223 232 231 229 227 235 240 232
9 15 14 6 16 10 16 12 9 2 10 353 8 348 24 5 357 351 344 331 327 326 324 317 305 299 295 288 289 280 278 282 275 261 256 254 256 241 237 239 231 231 242